Location: *
(40.4000°N, 15.1200°E)
Time: 05:40:34
(UTC+00:00)

Cosmos 1741 Rocket - Pass Details

Date: 09 April 2020
Orbit: 762 x 782 km, 74.0° (Epoch: 05 June)

Event Time Altitude Azimuth Distance (km) Brightness Sun altitude
Exits shadow 19:40:54 56° 153° (SSE) 927 4.0 -23.3°
Maximum altitude 19:41:46 66° 106° (ESE) 854 3.9 -23.4°
Drops below altitude 10° 19:47:03 10° 25° (NNE) 2,344 6.6 -24.2°
Sets 19:49:27 0° 23° (NNE) 3,275 7.4 -24.6°
